Location: Enborne
(51.3833°N, 1.3667°W)
Time: 11:21:42
(UTC+00:00)

Okean 1-7 Rocket - Pass Details

Date: 18 September 2020
Orbit: 616 x 649 km, 82.5° (Epoch: 23 October)

Event Time Altitude Azimuth Distance (km) Brightness Sun altitude
Rises 20:40:23 0° 353° (N) 2,980 7.7 -22.6°
Reaches altitude 10° 20:42:43 10° 358° (N) 2,066 6.7 -22.9°
Enters shadow 20:46:41 48° 52° (NE) 859 4.1 -23.4°
